Regional Weather Roundup
Issued by NWS Newport/Morehead, NC

Current Version | Previous Version | Text Only | Print | Product List | Glossary On
Versions: 1 2 3 4 5 6 7 8 9 10 11 12 13 14 15 16 17 18 19 20 21 22 23 24 25 26 27 28 29 30 31 32 33 34 35 36 37 38 39 40 41 42 43 44 45 46 47 48 49 50
000
ASUS42 KMHX 281310
RWRMHX
WEATHER ROUNDUP FOR EASTERN NORTH CAROLINA
NATIONAL WEATHER SERVICE NEWPORT/MOREHEAD CITY NC
800 AM EST WED JAN 28 2015

NOTE: "FAIR" INDICATES FEW OR NO CLOUDS BELOW 12,000 FEET
WITH NO SIGNIFICANT WEATHER AND/OR OBSTRUCTIONS TO VISIBILITY

NCZ015>017-031-032-045>047-102-103-281400-
NORTH COAST

CITY           SKY/WX    TMP DP  RH WIND       PRES   REMARKS
EDENTON        CLEAR     29  19  66 N15       30.15R WCI  18
ELIZABETH CITY CLEAR     29  18  63 NW12      30.15R WCI  19
KITTY HAWK     MOSUNNY   31  23  71 NW10      30.10R
MANTEO         PTCLDY    32  23  69 N16G22    30.12R

$$

NCZ045>047-081-094-103-104-281400-
CENTRAL COAST

CITY           SKY/WX    TMP DP  RH WIND       PRES   REMARKS
FRISCO         MOCLDY    33  25  72 N8G23     30.10R
SWANQUARTER    NOT AVBL

$$

NCZ095-097-098-100-101-281400-
SOUTHERN COAST

CITY           SKY/WX    TMP DP  RH WIND       PRES   REMARKS
BEAUFORT       CLEAR     32  25  75 N12       30.13R
CEDAR ISLAND   NOT AVBL
JACKSONVILLE   CLEAR     29  18  63 NW13      30.16R WCI  19
PINEY ISLAND     N/A    N/A N/A N/A MISG      30.12R
WILMINGTON     CLEAR     29  17  61 N12       30.16R WCI  19


$$

NCZ011>013-027>030-043-044-078>080-089-090>093-098-281400-
COASTAL PLAIN

CITY           SKY/WX    TMP DP  RH WIND       PRES   REMARKS
AHOSKIE        CLEAR     27  15  59 N3        30.18R
CLINTON        CLEAR     29  19  66 N3        30.19R
ELIZABETHTOWN  CLEAR     28  18  66 CALM      30.19R
GOLDSBORO      CLEAR     28  22  81 CALM      30.16R
GREENVILLE     CLEAR     30  21  69 N7        30.18R
HAVELOCK       CLEAR     33  21  61 N14       30.15R
KENANSVILLE    CLEAR     28  18  67 NW6       30.18R
KINSTON        CLEAR     28  19  69 NW7       30.18R
NEW BERN       CLEAR     32  21  64 N9        30.16R
RICHLANDS      CLEAR     27  18  69 NW3       30.17R
ROCKY MOUNT    CLEAR     29  17  61 N9        30.18R
WASHINGTON     CLEAR     30  17  59 N9        30.16R
WHITEVILLE     CLEAR     29  17  61 CALM      30.19R

$$

AMZ130-135-150-152-154-156-158-170-250-252-270-ANZ085-086-088-633-658-670-281400-
MARINE OBSERVATIONS

STATION/POSITION TIME  TEMP    WIND        PRES    WAVE   SWELL
                       AIR SEA DIR/SP/G            HT/PER HT/PER
                 (UTC) (F)     (DEG/KT/KT) (MB)    (FT/S) (FT/S)
CHESAPEAKE LIGHT 1200   31     350/ 27/ 29 1019.1
64 E VA BEACH    1300   35 51  350/ 23/ 29 1017.7   11/14   8/14
DUCK             1300   32 42  330/ 18/ 22 1018.7
2 E DUCK         1300      43                N/A     7/13   3/13
10 NE DUCK       1300      45                N/A     9/13   5/13
OREGON INLET     1300   33 42  340/ 15/ 25 1019.0
13E OREGON INLT  1300      45                N/A    10/13   7/13
HATTERAS CG      1300   35 47  350/ 20/ 26 1019.3
DIAMOND BUOY     1300   38 69  350/ 23/ 29 1017.8   10/12   8/12
17 S OCRACOKE    NOT AVBL
CAPE LOOKOUT     1200   34     350/ 16/ 20 1018.6
BEAUFORT LAB     1300   32 47  340/ 12/ 17 1019.1
27 SE WRIGHTSVLE NOT AVBL
5 SE WRIGHTSVLE  1200   34 52  350/ 19/ 23 1019.7
225 S CAPE HAT   1206   57 71  310/ 21/ 27 1015.2   11/14   7/14
41 SE CHARLESTON 1300   43 67  350/ 21/ 27 1020.6    6/ 6   2/11

$$



USA.gov is the U.S. government's official web portal to all federal, state and local government web resources and services.